Weather History for Seward, AK

Change the Weather History Date:

Friday, July 26, 2013

  Actual Average Record
Temperature  
Mean Temperature 62 °F -  
Max Temperature 68 °F 64 °F 82 °F (1970)
Min Temperature 55 °F 51 °F 42 °F (1998)
Degree Days  
Heating Degree Days 4    
Growing Degree Days 12 (Base 50)    
Moisture  
Dew Point 56 °F    
Average Humidity 84    
Maximum Humidity 94    
Minimum Humidity 73    
Precipitation  
Precipitation 0.00 in - - ()
Sea Level Pressure  
Sea Level Pressure 30.21 in    
Wind  
Wind Speed 5 mph (South)    
Max Wind Speed 14 mph    
Max Gust Speed -    
Visibility 10 miles    
Events      
Averages and records for this station are not official NWS values.
T = Trace of Precipitation, MM = Missing Value Source: NWS Daily Summary

Daily Weather History Graph

Daily Weather History Graph

Search for Another Location

Airport:

Trip Planner

Search our weather history database for the weather conditions in past years. The results will help you decide how hot, cold, wet, or windy it might be!

Date:

Astronomy

Jul. 26, 2013 Rise Set
Actual Time 5:24 AM AKDT 10:42 PM AKDT
Civil Twilight 4:18 AM AKDT 11:47 PM AKDT
Nautical Twilight 2:36 AM AKDT 1:31 AM AKDT
Astronomical Twilight Sun does not rise Sun does not rise
Moon 11:18 PM AKDT (7/26) 11:48 AM AKDT (7/26)
Length of Visible Light 19h 28m
Length of Day
17h 17m
Waning Gibbous, 79% of the Moon is Illuminated
Jul 26
Waning Gibbous
Jul 29
Last Quarter
Aug 6
New
Aug 14
First Quarter
Aug 20
Full

Hourly Weather History & Observations

Time (AKDT) Temp. Dew Point Humidity Pressure Visibility Wind Dir Wind Speed Gust Speed Precip Events Conditions
12:35 AM 57.2 °F 55.4 °F 94% 30.13 in 10.0 mi SSE 6.9 mph - N/A   Overcast
12:53 AM 57.9 °F 55.9 °F 93% 30.14 in 10.0 mi SE 6.9 mph - N/A   Overcast
1:53 AM 57.9 °F 55.0 °F 90% 30.15 in 10.0 mi Calm Calm - N/A   Overcast
2:33 AM 57.2 °F 55.4 °F 94% 30.15 in 10.0 mi SSE 3.5 mph - N/A   Overcast
2:53 AM 57.9 °F 55.9 °F 93% 30.16 in 10.0 mi Calm Calm - N/A   Overcast
3:13 AM 57.2 °F 55.4 °F 94% 30.15 in 10.0 mi SSW 4.6 mph - N/A   Overcast
3:53 AM 57.0 °F 55.0 °F 93% 30.16 in 10.0 mi SE 3.5 mph - N/A   Overcast
4:15 AM 57.2 °F 55.4 °F 94% 30.16 in 10.0 mi Calm Calm - N/A   Overcast
4:53 AM 57.0 °F 55.0 °F 93% 30.17 in 10.0 mi SSE 4.6 mph - N/A   Overcast
5:53 AM 57.0 °F 55.0 °F 93% 30.17 in 10.0 mi SE 3.5 mph - N/A   Overcast
6:53 AM 57.9 °F 55.0 °F 90% 30.19 in 10.0 mi SE 3.5 mph - N/A   Overcast
7:53 AM 59.0 °F 55.0 °F 87% 30.19 in 10.0 mi Calm Calm - N/A   Overcast
8:08 AM 60.8 °F 55.4 °F 82% 30.20 in 10.0 mi Calm Calm - N/A   Overcast
8:53 AM 60.1 °F 55.9 °F 86% 30.21 in 10.0 mi Calm Calm - N/A   Overcast
9:22 AM 60.8 °F 55.4 °F 82% 30.21 in 10.0 mi Calm Calm - N/A   Overcast
9:53 AM 60.1 °F 55.9 °F 86% 30.22 in 10.0 mi SSE 3.5 mph - N/A   Overcast
10:03 AM 60.8 °F 55.4 °F 82% 30.22 in 10.0 mi South 3.5 mph - N/A   Overcast
10:18 AM 60.8 °F 55.4 °F 82% 30.22 in 10.0 mi Calm Calm - N/A   Overcast
10:53 AM 60.1 °F 55.9 °F 86% 30.22 in 10.0 mi South 4.6 mph - N/A   Overcast
11:02 AM 60.8 °F 57.2 °F 88% 30.22 in 10.0 mi South 4.6 mph - N/A   Overcast
11:11 AM 60.8 °F 55.4 °F 82% 30.22 in 10.0 mi South 6.9 mph - N/A   Overcast
11:26 AM 62.6 °F 57.2 °F 82% 30.23 in 10.0 mi South 5.8 mph - N/A   Overcast
11:53 AM 62.1 °F 57.0 °F 84% 30.23 in 10.0 mi South 5.8 mph - N/A   Overcast
12:16 PM 62.6 °F 55.4 °F 77% 30.23 in 10.0 mi South 5.8 mph - N/A   Overcast
12:53 PM 64.9 °F 55.9 °F 73% 30.23 in 10.0 mi South 4.6 mph - N/A   Mostly Cloudy
1:24 PM 64.4 °F 57.2 °F 77% 30.24 in 10.0 mi South 5.8 mph - N/A   Scattered Clouds
1:53 PM 64.9 °F 57.0 °F 75% 30.24 in 10.0 mi SSE 8.1 mph - N/A   Clear
2:53 PM 66.0 °F 57.0 °F 73% 30.24 in 10.0 mi SSE 8.1 mph - N/A   Clear
3:53 PM 66.0 °F 57.0 °F 73% 30.24 in 10.0 mi South 11.5 mph - N/A   Clear
4:53 PM 66.0 °F 57.0 °F 73% 30.25 in 10.0 mi SSW 10.4 mph - N/A   Overcast
5:53 PM 64.9 °F 57.0 °F 75% 30.25 in 10.0 mi South 13.8 mph - N/A   Overcast
6:53 PM 64.9 °F 55.9 °F 73% 30.26 in 10.0 mi SSW 13.8 mph - N/A   Mostly Cloudy
7:53 PM 64.0 °F 55.9 °F 75% 30.26 in 10.0 mi SSW 10.4 mph - N/A   Overcast
8:53 PM 62.1 °F 55.9 °F 80% 30.27 in 10.0 mi SSE 5.8 mph - N/A   Mostly Cloudy
9:53 PM 59.0 °F 55.0 °F 87% 30.28 in 10.0 mi SE 5.8 mph - N/A   Clear
10:53 PM 57.9 °F 55.0 °F 90% 30.30 in 10.0 mi Calm Calm - N/A   Clear
11:53 PM 55.9 °F 54.0 °F 93% 30.31 in 10.0 mi NNW 3.5 mph - N/A   Scattered Clouds